Volver al catálogo

IGS O-6

ActivoMilitarSSO
NORAD 43223·PAYLOAD·🇯🇵 Japan

Lanzado Feb 27, 2018 desde Tanegashima Space Center

Loading…

Próximos Pases (próximas 24 horas)

TLE

ObsoletoSource: Mike McCants

Época: Aug 25, 2026, 00:02 UTC

1 43223U 18021A   26237.00160296 0.00000000  00000-0  00000-0 0    03
2 43223  97.3619 356.0758 0007880 315.0968  44.9031 15.27650769    09

Sigue IGS O-6 en tiempo real con AllMySat

Download on the App Store